CW9832 Weather Reports


Display with metric or nautical units.
time (UTC)temp
F
wind
direction
speed
MPH
gust
MPH
rain 1hr
in
rain 24hr
in
rain mn
in
humidity
%
barometer
mb
20260508081952 58 319 0.0 0.0 0.00 1.38 0.00 85 1012.9
20260508080948 58 319 0.0 0.0 0.00 1.40 0.00 86 1012.8
20260508073702 58 319 0.0 0.0 0.00 1.46 0.00 85 1012.8
20260508072657 59 319 0.0 0.0 0.00 1.47 0.00 86 1012.7
20260508070608 59 321 0.0 4.0 0.00 1.48 0.00 84 1012.7
20260508065547 59 321 0.0 0.0 0.00 1.48 0.00 84 1012.8
20260508064528 59 321 0.0 2.0 0.00 1.49 0.00 84 1012.6
20260508062426 60 321 0.0 0.0 0.00 1.49 0.00 82 1012.5
20260508061358 61 321 0.0 0.0 0.00 1.49 0.00 80 1012.7
20260508055234 62 321 0.0 0.0 0.00 1.49 0.00 79 1012.9
20260508054209 62 321 0.0 0.0 0.00 1.49 0.00 80 1013.0
20260508053145 62 321 0.0 0.0 0.00 1.49 0.00 77 1012.8
20260508052138 62 321 0.0 5.0 0.00 1.49 0.00 77 1012.6
20260508051154 63 321 0.0 7.0 0.00 1.49 0.00 80 1012.7
20260508050140 63 324 0.0 0.0 0.00 1.49 0.00 78 1012.5
20260508045204 63 323 0.0 3.0 0.00 1.49 0.00 83 1012.8
20260508044218 64 323 0.0 0.0 0.00 1.49 0.00 80 1012.6
20260508043147 64 324 0.0 0.0 0.00 1.49 0.00 78 1012.4
20260508042206 65 324 0.0 5.0 0.00 1.49 0.00 78 1012.4
20260508041150 65 314 0.0 8.0 0.00 1.49 0.00 78 1012.1
20260508040126 65 332 0.0 3.0 0.00 1.49 0.00 79 1012.2
20260508035119 66 318 0.0 3.0 0.00 1.49 1.49 78 1012.2
20260508032957 66 338 0.0 3.0 0.00 1.49 1.49 76 1012.2
20260508031951 67 316 1.0 10.0 0.00 1.49 1.49 76 1012.0
20260508030957 67 355 2.0 10.0 0.00 1.49 1.49 76 1012.0
20260508025937 67 300 1.0 13.0 0.00 1.49 1.49 77 1012.0
20260508024922 68 306 2.0 13.0 0.00 1.49 1.49 77 1011.9
20260508023848 68 321 1.0 9.0 0.00 1.49 1.49 76 1011.6
20260508021729 69 311 2.0 16.0 0.00 1.49 1.49 77 1011.4
20260508020716 70 325 2.0 16.0 0.00 1.49 1.49 78 1011.2
20260508014528 70 327 2.0 13.0 0.00 1.49 1.49 81 1010.9
20260508013516 71 309 1.0 2.0 0.00 1.49 1.49 82 1010.5
20260508011357 71 296 0.0 2.0 0.00 1.49 1.49 82 1010.0
20260508010355 71 282 0.0 7.0 0.00 1.49 1.49 82 1009.7
20260508005336 72 286 0.0 6.0 0.00 1.49 1.49 82 1009.6
20260508004332 72 277 0.0 0.0 0.00 1.49 1.49 82 1009.5
20260508003313 72 296 0.0 11.0 0.00 1.49 1.49 82 1009.4
20260508002254 73 290 0.0 11.0 0.00 1.49 1.49 83 1009.1
20260508000121 74 282 0.0 6.0 0.00 1.49 1.49 81 1008.7
20260507235046 74 241 0.0 3.0 0.00 1.49 1.49 81 1008.7
20260507234047 74 258 1.0 11.0 0.00 1.49 1.49 80 1008.6
20260507233027 75 257 0.0 11.0 0.00 1.49 1.49 81 1008.4
20260507231954 75 298 0.0 10.0 0.00 1.49 1.49 83 1008.5
20260507231019 75 272 0.0 3.0 0.00 1.49 1.49 81 1008.4
20260507230040 75 274 0.0 8.0 0.00 1.49 1.49 80 1008.3
20260507225046 76 254 0.0 15.0 0.00 1.49 1.49 80 1008.3
20260507224027 76 278 2.0 15.0 0.00 1.49 1.49 80 1008.4
20260507223034 76 250 1.0 10.0 0.00 1.49 1.49 80 1008.5
20260507222046 76 268 1.0 9.0 0.00 1.49 1.49 80 1008.5
20260507221030 76 287 1.0 17.0 0.00 1.49 1.49 81 1008.3
20260507214907 76 279 0.0 8.0 0.00 1.49 1.49 82 1008.3
20260507213905 76 244 1.0 13.0 0.00 1.49 1.49 80 1008.3
20260507212926 76 243 0.0 6.0 0.00 1.49 1.49 81 1008.2
20260507211937 76 272 1.0 11.0 0.00 1.49 1.49 81 1008.3
20260507210920 75 296 1.0 13.0 0.00 1.49 1.49 83 1008.3
20260507205921 74 283 0.0 10.0 0.00 1.49 1.49 86 1008.3
20260507204937 74 248 0.0 7.0 0.00 1.49 1.49 88 1008.3
20260507203958 74 249 0.0 2.0 0.00 1.49 1.49 88 1008.4
20260507202946 73 250 0.0 3.0 0.00 1.49 1.49 89 1008.4
20260507201956 73 256 0.0 0.0 0.00 1.49 1.49 89 1008.5
20260507200930 72 278 0.0 6.0 0.00 1.49 1.49 90 1008.4
20260507195949 72 281 0.0 3.0 0.00 1.49 1.49 90 1008.6
20260507194931 73 281 1.0 11.0 0.00 1.49 1.49 89 1008.6
20260507192819 73 300 1.0 12.0 0.00 1.49 1.49 90 1008.6
20260507185604 73 244 0.0 8.0 0.00 1.49 1.49 93 1008.6
20260507184548 72 286 0.0 4.0 0.00 1.49 1.49 93 1008.6
20260507183611 72 195 0.0 4.0 0.00 1.49 1.49 94 1008.4
20260507182558 72 232 0.0 2.0 0.00 1.49 1.49 94 1008.7
20260507181622 72 250 0.0 0.0 0.00 1.49 1.49 94 1008.8
20260507180636 71 165 0.0 0.0 0.00 1.49 1.49 94 1008.8
20260507175602 69 224 0.0 0.0 0.00 1.49 1.49 93 1008.8
20260507174552 69 248 0.0 0.0 0.04 1.49 1.49 94 1008.6
20260507173605 68 250 0.0 2.0 0.10 1.47 1.49 93 1008.5
20260507172622 68 260 0.0 0.0 0.05 1.45 1.48 93 1008.4
20260507171642 68 294 0.0 0.0 0.12 1.42 1.46 93 1009.1
20260507165522 68 294 0.0 0.0 0.21 1.37 1.40 93 1009.3
20260507164504 68 294 0.0 0.0 0.13 1.33 1.38 93 1009.3
20260507163523 68 294 0.0 0.0 0.13 1.26 1.35 93 1009.6
20260507162516 68 294 0.0 0.0 0.27 1.20 1.30 93 1009.7
20260507161444 68 292 0.0 6.0 0.12 1.18 1.22 93 1009.8
20260507160445 68 275 0.0 0.0 0.10 1.17 1.20 93 1009.8
20260507155503 68 275 0.0 0.0 0.13 1.13 1.18 93 1009.7
20260507154518 68 284 0.0 3.0 0.28 1.11 1.15 93 1009.7
20260507152331 68 275 1.0 0.0 4.47 0.87 1.04 93 1009.4
20260507151257 68 279 0.0 8.0 0.09 0.86 0.87 93 1008.5
20260507150249 68 246 1.0 16.0 0.23 0.81 0.87 93 1008.6
20260507145253 68 216 3.0 16.0 0.06 0.80 0.81 93 1008.6
20260507142033 68 160 2.0 13.0 0.09 0.72 0.77 93 1008.0
20260507141040 68 212 2.0 13.0 0.17 0.72 0.76 93 1009.4
20260507140051 68 170 1.0 9.0 0.31 0.65 0.72 93 1009.4
20260507135017 68 223 6.0 25.0 0.52 0.42 0.66 93 1009.1
20260507134036 68 200 3.0 18.0 0.52 0.42 0.51 93 1008.6
20260507133100 68 232 2.0 14.0 0.46 0.39 0.43 93 1009.5
20260507132115 68 273 2.0 14.0 0.15 0.36 0.38 93 1009.7
20260507131132 68 224 1.0 10.0 0.00 0.36 0.37 93 1008.9
20260507124957 68 309 1.0 11.0 0.00 0.36 0.36 93 1009.1
20260507124017 67 227 1.0 10.0 0.00 0.36 0.36 93 1008.9
20260507121927 67 213 3.0 15.0 0.00 0.36 0.36 93 1008.3
20260507120944 67 207 2.0 12.0 0.00 0.36 0.36 93 1008.4
20260507120002 67 200 1.0 12.0 0.00 0.36 0.36 93 1008.3
20260507114934 67 244 0.0 0.0 0.00 0.36 0.36 93 1007.9
20260507113923 67 279 0.0 8.0 0.00 0.36 0.36 93 1008.4
20260507112928 66 202 3.0 22.0 0.00 0.36 0.36 93 1007.0
20260507111915 66 166 3.0 22.0 0.05 0.35 0.36 93 1007.8
20260507110931 66 184 2.0 12.0 0.05 0.32 0.36 93 1008.0
20260507105950 67 191 1.0 12.0 0.10 0.32 0.35 93 1008.5
20260507104931 67 205 1.0 11.0 0.00 0.32 0.33 93 1009.1
20260507103928 67 245 2.0 0.0 0.00 0.32 0.33 93 1009.7
20260507102856 67 164 1.0 9.0 0.00 0.31 0.32 93 1009.7
20260507100738 67 165 0.0 7.0 0.00 0.31 0.31 93 1010.1
20260507095752 67 235 1.0 17.0 0.00 0.31 0.31 92 1010.0
20260507094809 67 211 2.0 13.0 0.00 0.31 0.31 92 1010.0
20260507093830 67 198 0.0 9.0 0.00 0.31 0.31 92 1010.0
20260507092810 67 242 0.0 9.0 0.00 0.31 0.31 92 1009.9
20260507091831 67 257 0.0 7.0 0.00 0.29 0.31 92 1009.9
20260507090817 67 198 4.0 17.0 0.08 0.26 0.31 92 1010.1
20260507085821 68 228 3.0 14.0 0.13 0.21 0.30 92 1010.4
20260507084752 68 197 3.0 17.0 0.23 0.14 0.24 92 1010.8